Flag for Saint Kitts and Nevis Weather past 2 weeks in Basseterre, Saint Kitts and Nevis

Now
84 °F

Scattered clouds.


Feels Like: 90 °F
Forecast: 76 / 81 °F
Wind: 9 mph from East

Location: Golden Rock

Current Time: Jan 31, 2015 at 12:55:12 PM

Latest Report: Jan 31, 2015 at 12:00 PM


Visibility: N/A

Pressure: 30.01 "Hg

Humidity: 66%

Dew point: 72 °F

Location of BasseterreLocation

Historic Weather in Basseterre — Graph

°F

Basseterre temperature yesterday

Maximum temperature yesterday: 84 °F (at 11:00 AM)
Minimum temperature yesterday: 73 °F (at 7:00 AM)
Average temperature yesterday: 79 °F

Past Weeks' High & Low Weather Summary

 TemperatureHumidityPressure
High86 °F (Jan 17, 12:00 PM)100% (Jan 17, 7:00 AM)30.07 "Hg (Jan 17, 7:00 AM)
Low70 °F (Jan 19, 7:00 AM)58% (Jan 29, 1:00 PM)29.89 "Hg (Jan 27, 10:00 AM)
Average80 °F77%30.00 "Hg
* Reported Jan 16 11:00 AM — Jan 31 11:00 AM, Basseterre, Weather by CustomWeather, © 2014

Note: Actual official high and low records may vary slightly from our data, if they occured in-between our weather recording intervals... More about our weather records

Advertising

Basseterre weather history for previous 24 hours

 ConditionsComfort  
Time TempWeatherWind HumidityBarometerVisibility
11:00 AM
Jan 31
82 °FScattered clouds.5 mph70%30.04 "HgN/A
10:00 AM82 °FScattered clouds.7 mph70%30.04 "HgN/A
9:00 AM79 °FScattered clouds.8 mph79%30.04 "HgN/A
8:00 AM77 °FPassing clouds.7 mph79%30.01 "HgN/A
7:00 AM73 °FPassing clouds.6 mph89%29.98 "HgN/A
6:00 AM72 °FPassing clouds.5 mph94%29.98 "HgN/A
10:00 PM
Jan 30
75 °FPassing clouds.6 mph83%30.01 "HgN/A
9:00 PM73 °FPassing clouds.7 mph89%29.98 "HgN/A
8:00 PM75 °FPassing clouds.6 mph83%29.98 "HgN/A
7:00 PM75 °FPassing clouds.6 mph83%29.98 "HgN/A
6:00 PM77 °FPassing clouds.5 mph79%29.95 "HgN/A
5:00 PM81 °FPassing clouds.7 mph70%29.95 "HgN/A
4:00 PM82 °FPassing clouds.10 mph66%29.95 "HgN/A
3:00 PM82 °FPassing clouds.10 mph66%29.95 "HgN/A
2:00 PM82 °FPassing clouds.10 mph66%29.95 "HgN/A
1:00 PM82 °FPassing clouds.9 mph70%29.98 "HgN/A
12:00 PM84 °FPassing clouds.7 mph66%30.01 "HgN/A
Weather by CustomWeather, © 2014

See weather overviewHow to use our weather pages